Regional Weather Roundup
Issued by NWS Albany, NY

Home | Current Version | Previous Version | Text Only | Print | Product List | Glossary On
Versions: 1 2 3 4 5 6 7 8 9 10 11 12 13 14 15 16 17 18 19 20 21 22 23 24 25 26 27 28 29 30 31 32 33 34 35 36 37 38 39 40 41 42 43 44 45 46 47 48 49 50
000
ASUS41 KALY 240910
RWRALY

NEW YORK STATE HOURLY WEATHER ROUNDUP
NATIONAL WEATHER SERVICE ALBANY NY
500 AM EDT SAT JUN 24 2017

NOTE: "FAIR" INDICATES FEW OR NO CLOUDS BELOW 12,000 FEET WITH NO
SIGNIFICANT WEATHER AND/OR NO OBSTRUCTIONS TO VISIBILITY.

NYZ032-033-038>043-046>054-057>066-NYZ062>081-082-084-241000-
EAST


CITY           SKY/WX    TMP DP  RH WIND       PRES   REMARKS
ALBANY         RAIN      72  67  84 W8        29.54R
GLENS FALLS    LGT RAIN  71  69  93 S6        29.50R
POUGHKEEPSIE   LGT RAIN  73  70  90 S6        29.55F
NEWBURGH       LGT RAIN  73  72  94 W8        29.61S FOG
MONTGOMERY     LGT RAIN  73  71  93 SW7       29.58R
ISLIP          CLOUDY    71  70  96 S7        29.60F
NEW YORK CITY  CLOUDY    74  71  91 NW9       29.60R
CENTRAL PARK   CLOUDY    73  71  93 W7        29.63S
$$

NYZ005>009-017-018-044>046-055-056-241000-
CENTRAL


CITY           SKY/WX    TMP DP  RH WIND       PRES   REMARKS
FULTON         LGT RAIN  65  63  93 W8        29.59R
SYRACUSE       LGT RAIN  66  66 100 W9        29.58R
ROME           CLOUDY    68  68 100 W8        29.56R
ELMIRA         NOT AVBL
BINGHAMTON     NOT AVBL
MONTICELLO     CLOUDY    70  70 100 W5        29.63S
$$

NYZ026>034-041>043-087-241000-
NORTH


CITY           SKY/WX    TMP DP  RH WIND       PRES   REMARKS
WATERTOWN      CLOUDY    66  66 100 SW6       29.56R
FORT DRUM      NOT AVBL
OGDENSBURG     MOCLDY    66  64  92 NW8       29.52R
MASSENA        CLOUDY    66  61  84 NW7       29.52R
SARANAC LAKE   MOCLDY    65  65 100 SW6       29.53S
PLATTSBURGH    LGT RAIN  68  67  96 CALM      29.46R
$$

NYZ001>004-010>016-019>021-085-241000-
WEST


CITY           SKY/WX    TMP DP  RH WIND       PRES   REMARKS
NIAGARA FALLS  CLEAR     62  53  72 W7        29.66R
BUFFALO        CLOUDY    66  55  67 NW7       29.66R
DUNKIRK        CLOUDY    67  63  87 W6        29.70R
JAMESTOWN      MOCLDY    63  59  88 W8        29.73R
WELLSVILLE     LGT RAIN  63  58  83 NW9       29.72R
ROCHESTER      CLOUDY    66  62  87 W5        29.63R
PENN YAN       CLOUDY    62  57  83 S5        29.64R
$$

             KEY
       WCI = WIND CHILL INDEX
       VSB = VISIBILITY
       HX  = HEAT INDEX
$$



USA.gov is the U.S. government's official web portal to all federal, state and local government web resources and services.